Location: Lane
(33.5226°N, 79.8788°W)
Time: 19:50:23
(UTC+00:00)

Explorer 11/Cluster Stage 4 - Pass Details

Date: 08 October 2022
Orbit: 466 x 1247 km, 28.8° (Epoch: 01 December)

Event Time Altitude Azimuth Distance (km) Brightness Sun altitude
Rises 19:51:38 0° 271° (W) 4,124 10.9 34.4°
Reaches altitude 10° 19:55:10 10° 260° (W) 3,086 10.7 33.8°
Maximum altitude 20:01:11 25° 208° (SSW) 1,995 10.1 32.8°
Drops below altitude 10° 20:06:30 10° 156° (SSE) 2,686 9.5 31.9°
Sets 20:09:22 0° 143° (SE) 3,493 9.9 31.4°
